�N����,����,�~����,�C��,���x,�C��,����,���ϕ���,�ő�u�ԕ���,�ő厞����,���˗�,�I�_���x,�n�����x,�ő啗���N��,DTYPE
"17/04/05","00:10",0.0,7.3,81.8,1020.1,318.3,1.8,2.5,318.9,0.00,4.4,11.2,"00:03:12",1
"17/04/05","00:20",0.0,7.3,81.6,1019.9,310.9,1.7,2.4,313.0,0.00,4.4,11.1,"00:14:16",1
"17/04/05","00:30",0.0,7.1,82.0,1019.9,311.6,1.6,2.4,320.3,0.00,4.3,11.1,"00:23:44",1
"17/04/05","00:40",0.0,6.7,82.2,1019.9,308.2,2.0,3.2,325.4,0.00,3.9,11.0,"00:34:08",1
"17/04/05","00:50",0.0,6.5,83.9,1019.7,313.2,1.7,2.1,313.2,0.00,4.0,10.7,"00:42:48",1
"17/04/05","01:00",0.0,6.3,84.3,1019.7,306.4,2.0,2.7,316.7,0.00,3.9,10.8,"00:50:48",1
"17/04/05","01:10",0.0,6.1,84.7,1019.4,320.2,2.7,3.2,321.8,0.00,3.8,10.8,"01:04:26",1
"17/04/05","01:20",0.0,5.9,85.9,1019.7,289.4,1.7,2.7,320.3,0.00,3.8,10.6,"01:10:16",1
"17/04/05","01:30",0.0,6.2,86.7,1019.2,310.6,2.0,2.8,323.1,0.00,4.2,10.5,"01:24:24",1
"17/04/05","01:40",0.0,6.3,85.6,1019.2,313.4,2.0,2.7,327.8,0.00,4.1,10.7,"01:32:48",1
"17/04/05","01:50",0.0,5.9,84.9,1019.7,282.9,1.2,1.7,309.2,0.00,3.6,10.4,"01:40:48",1
"17/04/05","02:00",0.0,5.6,86.2,1019.7,298.8,1.7,2.4,308.6,0.00,3.5,10.3,"01:53:52",1
"17/04/05","02:10",0.0,5.5,87.3,1019.4,297.9,1.5,2.6,316.5,0.00,3.6,10.3,"02:00:56",1
"17/04/05","02:20",0.0,5.5,88.1,1019.4,301.0,2.0,3.1,323.7,0.00,3.7,10.3,"02:18:24",1
"17/04/05","02:30",0.0,5.5,88.5,1019.7,315.1,2.5,2.9,322.5,0.00,3.8,10.4,"02:20:08",1
"17/04/05","02:40",0.0,5.5,88.8,1019.2,299.0,2.0,2.5,318.3,0.00,3.8,10.3,"02:33:28",1
"17/04/05","02:50",0.0,5.8,89.0,1019.4,294.1,2.2,2.6,318.5,0.00,4.2,10.3,"02:43:52",1
"17/04/05","03:00",0.0,6.1,87.2,1020.1,294.6,2.0,3.2,323.0,0.00,4.2,10.1,"02:51:44",1
"17/04/05","03:10",0.0,6.0,86.2,1019.9,302.9,1.7,2.4,312.2,0.00,3.9,10.0,"03:00:32",1
"17/04/05","03:20",0.0,5.7,86.7,1019.9,298.0,1.8,2.4,315.8,0.00,3.7,9.9,"03:19:04",1
"17/04/05","03:30",0.0,5.7,87.1,1020.1,304.8,1.8,2.6,320.3,0.00,3.8,9.9,"03:20:02",1
"17/04/05","03:40",0.0,5.8,87.3,1020.1,319.9,1.8,2.6,322.4,0.00,3.9,9.9,"03:32:08",1
"17/04/05","03:50",0.0,5.5,87.1,1019.9,274.7,1.0,1.4,277.8,0.00,3.6,9.8,"03:42:16",1
"17/04/05","04:00",0.0,5.3,87.4,1020.1,292.0,1.1,2.0,311.3,0.00,3.4,9.8,"03:54:24",1
"17/04/05","04:10",0.0,5.1,88.2,1020.1,308.5,2.3,2.8,318.5,0.00,3.4,9.8,"04:05:04",1
"17/04/05","04:20",0.0,5.1,89.1,1019.9,312.7,1.8,2.4,316.5,0.00,3.5,9.9,"04:19:12",1
"17/04/05","04:30",0.0,5.0,89.2,1020.1,297.9,2.0,2.7,315.4,0.00,3.4,9.7,"04:21:28",1
"17/04/05","04:40",0.0,5.2,89.3,1020.4,291.4,1.6,2.0,311.1,0.00,3.6,9.6,"04:38:48",1
"17/04/05","04:50",0.0,5.6,88.4,1020.4,302.8,2.0,2.5,312.7,0.00,3.9,9.6,"04:43:04",1
"17/04/05","05:00",0.0,5.6,87.1,1020.4,289.4,1.2,1.9,303.8,0.00,3.7,9.6,"04:50:02",1
"17/04/05","05:10",0.0,5.3,87.5,1020.4,321.2,2.6,3.3,325.6,0.00,3.4,9.7,"05:05:20",1
"17/04/05","05:20",0.0,5.2,88.1,1020.6,295.1,1.2,2.8,316.0,0.00,3.4,9.6,"05:10:08",1
"17/04/05","05:30",0.0,5.2,88.7,1020.8,303.1,1.5,2.2,268.6,0.00,3.5,9.3,"05:23:52",1
"17/04/05","05:40",0.0,5.0,89.5,1020.8,308.9,2.1,2.6,316.1,0.00,3.5,9.6,"05:34:08",1
"17/04/05","05:50",0.0,5.1,90.6,1021.1,311.1,2.1,2.7,318.8,0.00,3.7,9.5,"05:44:08",1
"17/04/05","06:00",0.0,5.2,90.7,1020.8,304.4,2.0,2.5,316.9,0.00,3.8,9.4,"05:56:56",1
"17/04/05","06:10",0.0,5.3,91.0,1021.3,311.7,2.2,2.7,312.3,0.00,4.0,9.4,"06:01:44",1
"17/04/05","06:20",0.0,5.5,91.2,1021.1,290.2,2.0,2.6,308.8,0.00,4.2,9.4,"06:16:16",1
"17/04/05","06:30",0.0,6.1,90.3,1021.5,295.8,2.0,2.4,320.8,0.01,4.7,9.5,"06:20:02",1
"17/04/05","06:40",0.0,6.5,88.6,1021.5,292.2,2.0,2.6,317.2,0.01,4.8,9.4,"06:36:08",1
"17/04/05","06:50",0.0,7.0,86.7,1021.8,304.9,1.7,2.5,300.2,0.01,5.0,9.4,"06:40:24",1
"17/04/05","07:00",0.0,7.6,84.6,1022.0,325.3,1.6,2.4,311.2,0.03,5.2,9.6,"06:51:20",1
"17/04/05","07:10",0.0,8.1,81.5,1022.0,317.2,1.6,2.2,321.5,0.04,5.2,9.6,"07:04:56",1
"17/04/05","07:20",0.0,9.2,81.1,1022.3,300.0,0.6,1.7,313.8,0.08,6.2,9.5,"07:10:32",1
"17/04/05","07:30",0.0,10.3,77.3,1022.5,318.2,0.3,0.8,311.9,0.10,6.5,9.5,"07:23:44",1
"17/04/05","07:40",0.0,11.1,73.3,1022.5,277.4,0.5,0.9,296.4,0.12,6.5,9.4,"07:33:36",1
"17/04/05","07:50",0.0,11.8,70.3,1023.0,269.2,0.3,0.9,314.8,0.17,6.6,9.8,"07:44:08",1
"17/04/05","08:00",0.0,12.6,65.7,1022.7,250.4,0.5,1.4,237.7,0.17,6.4,9.9,"07:59:04",1
"17/04/05","08:10",0.0,13.1,59.6,1023.0,203.5,0.5,1.0,172.4,0.19,5.5,10.0,"08:00:32",1
"17/04/05","08:20",0.0,13.1,59.5,1023.0,210.0,0.5,1.2,210.4,0.18,5.4,10.0,"08:14:16",1
"17/04/05","08:30",0.0,13.1,57.6,1023.0,186.4,0.8,2.1,238.6,0.20,5.0,10.4,"08:29:36",1
"17/04/05","08:40",0.0,14.0,55.5,1022.7,218.8,0.7,1.9,211.7,0.28,5.3,10.3,"08:30:24",1
"17/04/05","08:50",0.0,14.2,54.1,1022.7,215.6,0.7,1.8,192.0,0.32,5.1,10.7,"08:47:36",1
"17/04/05","09:00",0.0,14.8,53.0,1022.5,260.9,0.7,1.4,128.9,0.34,5.4,10.6,"08:59:12",1
"17/04/05","09:10",0.0,14.8,53.6,1022.3,266.3,1.0,2.4,206.4,0.36,5.5,10.9,"09:06:16",1
"17/04/05","09:20",0.0,15.4,50.3,1022.3,283.2,0.7,1.6,324.6,0.37,5.2,11.1,"09:19:44",1
"17/04/05","09:30",0.0,15.9,50.6,1022.3,258.8,0.6,2.1,156.0,0.38,5.7,11.1,"09:28:16",1
"17/04/05","09:40",0.0,16.0,49.4,1022.3,126.9,0.7,2.6,111.9,0.41,5.5,11.6,"09:31:12",1
"17/04/05","09:50",0.0,16.3,49.4,1022.0,55.3,1.0,2.2,142.5,0.44,5.7,11.4,"09:48:16",1
"17/04/05","10:00",0.0,16.9,49.2,1021.8,175.1,1.1,3.2,131.4,0.45,6.2,12.0,"09:55:04",1
"17/04/05","10:10",0.0,17.0,46.6,1021.8,129.4,1.2,2.4,126.5,0.48,5.5,12.1,"10:02:48",1
"17/04/05","10:20",0.0,17.4,46.3,1021.5,186.4,1.2,2.0,195.4,0.43,5.8,12.2,"10:11:20",1
"17/04/05","10:30",0.0,17.9,46.5,1021.5,195.3,1.7,3.6,178.0,0.49,6.3,12.5,"10:26:32",1
"17/04/05","10:40",0.0,18.4,43.8,1020.8,160.5,1.1,3.1,152.5,0.52,5.9,12.8,"10:37:44",1
"17/04/05","10:50",0.0,18.5,45.0,1020.8,146.6,1.0,2.8,143.1,0.48,6.4,13.1,"10:48:32",1
"17/04/05","11:00",0.0,18.9,44.3,1020.8,66.5,1.2,3.4,124.1,0.53,6.5,13.2,"10:56:00",1
"17/04/05","11:10",0.0,19.1,45.2,1020.4,182.2,1.3,3.5,165.3,0.50,7.0,13.5,"11:00:56",1
"17/04/05","11:20",0.0,18.8,45.6,1020.4,147.9,2.1,3.6,178.9,0.41,6.9,13.7,"11:14:00",1
"17/04/05","11:30",0.0,19.2,45.3,1020.6,133.8,1.7,4.9,143.7,0.44,7.1,14.1,"11:20:56",1
"17/04/05","11:40",0.0,20.0,45.9,1019.9,160.8,2.3,4.2,110.8,0.49,8.0,14.1,"11:35:20",1
"17/04/05","11:50",0.0,19.4,46.3,1020.4,178.2,3.1,5.5,176.5,0.38,7.6,14.3,"11:45:44",1
"17/04/05","12:00",0.0,19.9,49.4,1020.1,177.6,2.3,5.7,137.7,0.35,9.0,14.3,"11:54:08",1
"17/04/05","12:10",0.0,19.9,47.3,1019.9,203.7,1.8,4.1,225.1,0.28,8.4,14.2,"12:08:24",1
"17/04/05","12:20",0.0,19.4,48.4,1019.9,223.2,3.0,6.3,205.6,0.24,8.3,14.5,"12:16:56",1
"17/04/05","12:30",0.0,19.4,50.2,1020.1,238.1,2.7,6.3,213.8,0.25,8.8,14.7,"12:21:04",1
"17/04/05","12:40",0.0,19.4,50.2,1020.4,242.0,2.8,6.6,223.9,0.27,8.8,14.6,"12:37:04",1
"17/04/05","12:50",0.0,19.6,50.7,1019.7,278.0,3.1,6.5,321.6,0.28,9.1,14.7,"12:48:16",1
"17/04/05","13:00",0.0,19.4,49.5,1019.7,254.6,1.8,4.4,316.3,0.26,8.6,14.6,"12:53:44",1
"17/04/05","13:10",0.0,19.8,49.2,1019.7,255.7,1.3,4.0,236.7,0.22,8.9,14.7,"13:08:40",1
"17/04/05","13:20",0.0,19.6,50.9,1019.9,245.4,2.2,4.8,284.0,0.19,9.2,14.4,"13:12:56",1
"17/04/05","13:30",0.0,19.5,50.8,1019.7,255.7,2.0,3.9,260.3,0.17,9.1,14.6,"13:23:44",1
"17/04/05","13:40",0.0,19.5,50.0,1019.9,256.3,1.7,3.6,306.7,0.18,8.9,14.8,"13:30:24",1
"17/04/05","13:50",0.0,19.2,51.0,1019.7,240.8,2.6,5.4,218.2,0.18,8.9,14.7,"13:48:16",1
"17/04/05","14:00",0.0,19.5,50.3,1019.7,270.9,2.0,4.3,310.7,0.20,8.9,14.6,"13:59:52",1
"17/04/05","14:10",0.0,19.5,50.7,1019.4,284.9,2.6,4.9,323.3,0.20,9.1,14.6,"14:07:00",1
"17/04/05","14:20",0.0,19.5,49.7,1019.0,279.9,2.2,4.5,315.1,0.20,8.8,14.7,"14:14:32",1
"17/04/05","14:30",0.0,19.6,49.7,1019.2,275.9,2.0,4.3,308.6,0.20,8.9,14.9,"14:25:44",1
"17/04/05","14:40",0.0,19.9,49.4,1019.0,221.3,1.6,4.1,168.2,0.21,9.0,14.7,"14:36:40",1
"17/04/05","14:50",0.0,19.8,48.7,1019.0,217.3,2.5,4.4,230.2,0.21,8.7,14.8,"14:47:28",1
"17/04/05","15:00",0.0,19.9,50.3,1019.2,256.9,1.7,2.8,275.5,0.19,9.3,14.7,"14:53:44",1
"17/04/05","15:10",0.0,19.9,48.3,1019.0,257.0,1.7,4.0,337.3,0.17,8.7,14.7,"15:04:08",1
"17/04/05","15:20",0.0,19.8,48.3,1019.0,266.8,1.6,4.1,257.0,0.17,8.6,14.7,"15:17:12",1
"17/04/05","15:30",0.0,20.2,46.9,1018.5,273.6,2.0,4.9,224.4,0.20,8.5,14.9,"15:28:08",1
"17/04/05","15:40",0.0,20.0,46.6,1019.0,228.0,2.3,4.3,223.1,0.20,8.3,14.7,"15:32:00",1
"17/04/05","15:50",0.0,20.0,47.3,1018.7,225.3,2.6,5.2,228.7,0.19,8.5,15.0,"15:49:44",1
"17/04/05","16:00",0.0,19.9,49.0,1018.7,216.7,2.2,4.7,225.8,0.14,8.9,14.8,"15:50:08",1
"17/04/05","16:10",0.0,19.7,48.6,1018.7,223.5,2.6,5.6,223.8,0.09,8.6,14.9,"16:01:04",1
"17/04/05","16:20",0.0,19.5,48.3,1019.0,214.2,2.3,4.4,208.4,0.07,8.3,14.7,"16:17:28",1
"17/04/05","16:30",0.0,19.5,49.5,1019.0,235.0,2.3,3.7,230.4,0.07,8.7,14.8,"16:24:40",1
"17/04/05","16:40",0.0,19.5,49.4,1019.2,267.7,2.2,4.7,309.3,0.06,8.7,14.7,"16:30:08",1
"17/04/05","16:50",0.0,19.4,48.9,1019.4,263.5,1.8,3.6,303.6,0.06,8.4,14.5,"16:40:24",1
"17/04/05","17:00",0.0,19.2,49.0,1019.0,264.0,1.6,2.7,234.8,0.05,8.3,14.5,"16:56:24",1
"17/04/05","17:10",0.0,19.1,50.8,1019.2,268.3,1.7,3.3,310.1,0.04,8.7,14.5,"17:02:48",1
"17/04/05","17:20",0.0,19.0,50.0,1019.0,292.1,1.5,3.7,339.3,0.02,8.4,14.5,"17:16:16",1
"17/04/05","17:30",0.0,18.7,51.0,1019.0,272.2,1.0,1.9,270.7,0.00,8.4,14.5,"17:26:24",1
"17/04/05","17:40",0.0,18.6,52.3,1019.0,288.8,1.2,2.9,341.0,0.00,8.7,14.2,"17:31:28",1
"17/04/05","17:50",0.0,18.3,52.9,1019.4,271.2,1.1,1.9,236.6,0.00,8.6,14.5,"17:41:52",1
"17/04/05","18:00",0.0,18.3,52.2,1019.0,266.4,1.3,3.3,230.5,0.00,8.4,14.2,"17:52:00",1
"17/04/05","18:10",0.0,18.1,53.1,1019.7,273.0,0.8,1.6,237.8,0.00,8.4,14.1,"18:03:20",1
"17/04/05","18:20",0.0,17.8,55.9,1019.2,308.6,1.0,1.7,340.8,0.00,8.9,14.2,"18:11:52",1
"17/04/05","18:30",0.0,17.5,59.2,1019.2,285.3,0.6,2.5,318.4,0.00,9.5,14.2,"18:20:02",1
"17/04/05","18:40",0.0,16.9,61.1,1019.2,325.3,1.3,2.6,321.7,0.00,9.4,14.1,"18:30:08",1
"17/04/05","18:50",0.0,16.5,62.7,1019.4,329.0,1.2,2.0,325.4,0.00,9.4,13.9,"18:41:12",1
"17/04/05","19:00",0.0,16.0,64.2,1019.7,307.8,1.3,2.0,319.8,0.00,9.3,13.8,"18:53:12",1
"17/04/05","19:10",0.0,15.8,64.4,1019.7,314.3,1.5,2.2,328.8,0.00,9.1,13.7,"19:08:48",1
"17/04/05","19:20",0.0,15.7,64.7,1019.4,297.1,1.5,2.5,322.5,0.00,9.1,13.7,"19:10:40",1
"17/04/05","19:30",0.0,15.5,64.8,1019.7,314.8,1.6,2.8,328.1,0.00,9.0,13.8,"19:21:04",1
"17/04/05","19:40",0.0,15.4,65.3,1019.7,326.0,1.7,3.2,323.9,0.00,9.0,13.6,"19:39:52",1
"17/04/05","19:50",0.0,15.6,62.7,1019.4,320.3,2.2,3.4,331.6,0.00,8.6,13.5,"19:42:48",1
"17/04/05","20:00",0.0,15.6,63.1,1019.9,328.4,1.1,2.2,335.5,0.00,8.7,13.5,"19:51:04",1
"17/04/05","20:10",0.0,15.1,65.4,1019.7,88.0,0.6,1.2,94.1,0.00,8.7,13.4,"20:03:12",1
"17/04/05","20:20",0.0,14.4,69.0,1019.7,332.7,1.7,2.8,329.0,0.00,8.8,13.3,"20:16:24",1
"17/04/05","20:30",0.0,13.9,70.9,1019.7,303.6,1.5,2.5,341.3,0.00,8.8,13.1,"20:23:52",1
"17/04/05","20:40",0.0,13.7,71.5,1019.7,314.5,1.7,2.8,335.7,0.00,8.7,13.2,"20:35:20",1
"17/04/05","20:50",0.0,13.4,72.4,1019.7,289.3,1.1,1.9,324.3,0.00,8.6,13.1,"20:45:20",1
"17/04/05","21:00",0.0,13.1,73.4,1019.9,313.2,1.2,1.9,337.1,0.00,8.5,13.0,"20:54:10",1
"17/04/05","21:10",0.0,12.9,74.8,1019.9,329.0,1.7,2.4,329.9,0.00,8.6,12.8,"21:08:00",1
"17/04/05","21:20",0.0,12.8,74.8,1019.7,283.6,1.0,1.7,318.6,0.00,8.5,12.8,"21:10:08",1
"17/04/05","21:30",0.0,12.9,75.4,1019.9,286.9,1.5,2.1,288.8,0.00,8.7,12.8,"21:27:06",1
"17/04/05","21:40",0.0,12.8,75.7,1019.4,288.7,0.8,1.3,270.5,0.00,8.7,12.7,"21:36:40",1
"17/04/05","21:50",0.0,12.8,75.4,1019.4,278.9,1.1,1.7,276.8,0.00,8.6,12.7,"21:48:50",1
"17/04/05","22:00",0.0,12.5,76.4,1019.4,319.6,1.3,2.0,303.5,0.00,8.5,12.5,"21:56:48",1
"17/04/05","22:10",0.0,11.9,78.3,1019.0,309.9,1.3,1.8,319.3,0.00,8.3,12.6,"22:03:44",1
"17/04/05","22:20",0.0,11.8,79.4,1019.2,310.0,1.5,2.1,318.8,0.00,8.4,12.6,"22:12:10",1
"17/04/05","22:30",0.0,11.6,79.6,1019.0,305.9,1.6,2.0,321.0,0.00,8.2,12.5,"22:21:36",1
"17/04/05","22:40",0.0,11.6,80.1,1018.7,320.5,1.8,2.8,340.6,0.00,8.3,12.2,"22:33:04",1
"17/04/05","22:50",0.0,11.3,80.4,1018.7,312.2,1.3,1.7,335.1,0.00,8.1,12.3,"22:40:48",1
"17/04/05","23:00",0.0,11.0,81.5,1018.7,303.4,1.1,1.4,318.6,0.00,8.0,12.2,"22:52:36",1
"17/04/05","23:10",0.0,10.7,82.9,1018.2,298.0,1.6,2.1,318.8,0.00,8.0,12.1,"23:05:16",1
"17/04/05","23:20",0.0,10.9,82.7,1018.5,317.1,1.5,2.0,343.7,0.00,8.1,11.9,"23:10:18",1
"17/04/05","23:30",0.0,10.4,83.0,1018.7,319.6,1.7,2.2,323.7,0.00,7.7,12.1,"23:27:44",1
"17/04/05","23:40",0.0,10.0,84.8,1018.5,315.8,1.7,2.5,336.3,0.00,7.6,11.7,"23:33:50",1
"17/04/05","23:50",0.0,10.1,86.1,1018.7,296.2,1.7,2.2,313.8,0.00,7.9,11.7,"23:47:38",1
"17/04/05","24:00",0.0,10.4,85.5,1019.0,288.2,1.6,2.0,297.4,0.00,8.1,11.7,"23:50:50",1
